Location: Brachstadt
(48.6975°N, 10.6755°E)
Time: 13:13:29
(UTC+00:00)

Envisat - Pass Details

Date: 30 November 2022
Orbit: 763 x 765 km, 98.2° (Epoch: 06 February)

Event Time Altitude Azimuth Distance (km) Brightness Sun altitude
Rises 02:51:41 0° 21° (NNE) 3,246 6.6 -38.0°
Reaches altitude 10° 02:54:12 10° 30° (NNE) 2,314 5.9 -37.6°
Enters shadow 02:56:13 21° 46° (NE) 1,667 5.1 -37.3°
